Flag for Moldova Weather past 2 weeks in Chisinau, Moldova

45 °F

Passing clouds.

Feels Like: 39 °F
Forecast: 38 / 42 °F
Wind: 10 mph from Southwest

Location: Chisinau International Airport

Current Time: Dec 1, 2015 at 11:38:07 AM

Latest Report: Dec 1, 2015 at 11:00 AM

Visibility: N/A

Pressure: 29.80 "Hg

Humidity: 71%

Dew point: 36 °F

Location of ChisinauLocation

Historic Weather in Chisinau — Graph


Chisinau temperature yesterday

Maximum temperature yesterday: 46 °F (at 12:30 PM)
Minimum temperature yesterday: 32 °F (at 5:00 AM)
Average temperature yesterday: 41 °F

Past Weeks' High & Low Weather Summary

High63 °F (Nov 22, 10:30 AM)93% (Nov 17, 6:00 AM)30.30 "Hg (Nov 17, 6:00 AM)
Low25 °F (Nov 17, 6:00 AM)34% (Nov 19, 1:30 PM)29.24 "Hg (Nov 22, 4:30 AM)
Average43 °F73%29.88 "Hg
* Reported Nov 16 9:00 AM — Dec 1 9:00 AM, Chisinau, Weather by CustomWeather, © 2015

Note: Actual official high and low records may vary slightly from our data, if they occured in-between our weather recording intervals... More about our weather records


Chisinau weather history for previous 24 hours

Time TempWeatherWind HumidityBarometerVisibility
9:00 AM
Tue, Dec 1
37 °FPartly sunny.5 mph81%29.89 "HgN/A
8:30 AM36 °FPartly sunny.6 mph81%29.92 "HgN/A
8:00 AM36 °FPassing clouds.5 mph81%29.92 "HgN/A
7:30 AM36 °FPassing clouds.3 mph81%29.92 "HgN/A
7:00 AM34 °FPassing clouds.6 mph81%29.92 "HgN/A
6:30 AM36 °FPassing clouds.5 mph75%29.92 "HgN/A
6:00 AM34 °FPassing clouds.5 mph81%29.92 "HgN/A
5:30 AM34 °FPassing clouds.2 mph81%29.95 "HgN/A
5:00 AM36 °FPassing clouds.8 mph75%29.95 "HgN/A
4:30 AM36 °FPassing clouds.9 mph75%29.95 "HgN/A
4:00 AM36 °FPassing clouds.9 mph75%29.95 "HgN/A
3:00 AM36 °FClear.8 mph75%29.95 "Hg10 mi
2:00 AM36 °FPassing clouds.7 mph70%29.95 "HgN/A
1:30 AM37 °FPassing clouds.6 mph65%29.95 "HgN/A
1:00 AM41 °FPassing clouds.7 mph61%29.95 "HgN/A
12:30 AM43 °FPassing clouds.9 mph57%29.95 "HgN/A
12:00 AM41 °FPassing clouds.9 mph70%29.95 "HgN/A
11:30 PM
Mon, Nov 30
43 °FPassing clouds.10 mph66%29.95 "HgN/A
11:00 PM45 °FPassing clouds.8 mph61%29.95 "HgN/A
10:30 PM43 °FPassing clouds.13 mph76%29.95 "HgN/A
10:00 PM39 °FPassing clouds.5 mph75%29.95 "HgN/A
9:30 PM43 °FPassing clouds.5 mph76%29.95 "HgN/A
9:00 PM43 °FPassing clouds.6 mph76%29.92 "HgN/A
8:30 PM43 °FPassing clouds.12 mph76%29.92 "HgN/A
8:00 PM45 °FPassing clouds.10 mph71%29.92 "HgN/A
7:30 PM45 °FPassing clouds.12 mph71%29.89 "HgN/A
7:00 PM45 °FLight rain. Passing clouds.10 mph71%29.92 "HgN/A
6:30 PM45 °FLight rain. Passing clouds.12 mph71%29.92 "HgN/A
6:00 PM45 °FPassing clouds.13 mph71%29.89 "HgN/A
5:30 PM45 °FPassing clouds.13 mph71%29.89 "HgN/A
5:00 PM43 °FPassing clouds.9 mph76%29.89 "HgN/A
4:30 PM45 °FPassing clouds.10 mph71%29.89 "HgN/A
4:00 PM46 °FLight rain. Partly sunny.12 mph66%29.89 "HgN/A
3:30 PM46 °FPartly sunny.10 mph66%29.89 "HgN/A
3:00 PM46 °FPartly sunny.14 mph62%29.89 "HgN/A
2:30 PM46 °FSunny.13 mph62%29.89 "Hg10 mi
2:00 PM46 °FSunny.12 mph62%29.89 "Hg10 mi
1:30 PM46 °FSunny.9 mph62%29.89 "Hg10 mi
1:00 PM46 °FSunny.13 mph57%29.92 "Hg10 mi
12:30 PM46 °FSunny.14 mph57%29.92 "Hg10 mi
12:00 PM45 °FSunny.13 mph61%29.92 "Hg10 mi
11:30 AM45 °FSunny.13 mph61%29.92 "Hg10 mi
11:00 AM43 °FSunny.13 mph61%29.95 "Hg10 mi
Weather by CustomWeather, © 2015

See weather overviewHow to use our weather pages